Location: Cérisy-Gailly
(49.9069°N, 2.6397°E)
Time: 12:07:59
(UTC+00:00)

Daily predictions for brighter satellites

Satellite Brightness Start Highest point End
(mag) Time Altitude Azimuth Time Altitude Azimuth Time Altitude Azimuth
Cosmos 2322 3.8 18:26:40 10° S 18:32:08 54° ESE 18:37:39 10° NE
Cosmos 1066 Rocket 4.4 18:27:21 10° N 18:33:12 65° ENE 18:38:59 10° SSE
Cosmos 2233 Rocket 4.0 18:27:31 10° S 18:33:37 73° E 18:39:47 10° NNE
Cosmos 1802 Rocket 4.5 18:28:26 10° SSW 18:34:36 69° WNW 18:40:54 10° N
Cosmos 1726 1.4 18:33:27 10° S 18:36:11 57° E 18:38:57 10° NNE
Resurs 1-3 3.6 18:32:48 10° SSE 18:37:05 64° ENE 18:41:23 10° N
SAR-Lupe-2 3.5 18:41:27 10° SSE 18:45:01 84° ENE 18:48:38 10° NNW
Cosmos 1315 Rocket 4.4 18:43:27 10° NNE 18:46:18 19° ENE 18:49:08 10° ESE
Meteor PRIRODA 3.3 18:46:32 10° SSE 18:49:48 66° ENE 18:53:05 10° N
ATLAS 2AS CENTAUR R/B 4.2 18:43:25 10° W 18:49:59 36° NNW 18:56:20 10° NE
Cosmos 1125 Rocket 4.1 18:45:18 10° NNW 18:50:11 39° ENE 18:55:04 10° SE
Cosmos 1842 3.3 18:48:12 10° N 18:51:44 48° ENE 18:55:14 10° SSE
USA 59 Rocket 0.2 18:49:33 10° NW 18:53:18 73° SW 18:58:28 10° SE
Cosmos 1536 3.7 18:51:14 10° SSE 18:54:26 26° E 18:57:41 10° NNE
Okean 3 Rocket 4.3 18:50:56 10° SSE 18:54:54 32° E 18:58:52 10° NNE
Cosmos 1707 2.9 18:52:07 10° N 18:55:32 43° ENE 18:58:56 10° SSE
Cosmos 2061 Rocket 4.3 18:49:15 10° SSW 18:55:42 78° W 19:02:11 10° N
Cosmos 1515 Rocket 4.1 18:51:41 10° N 18:55:44 37° ENE 18:59:47 10° SE
COSMOS 2428 2.7 18:50:16 10° SSW 18:55:54 67° ESE 19:01:37 10° NNE
Cosmos 1818 3.8 18:55:35 10° SW 19:01:03 76° NW 19:06:34 10° NE
Okean O Rocket 2.6 18:57:41 10° SE 19:01:31 30° ENE 19:05:21 10° N
Cosmos 2278 Rocket 2.2 19:00:33 10° NNW 19:06:15 79° ENE 19:11:56 10° SSE
USA 306 2.2 19:04:39 10° WSW 19:07:45 88° SSE 19:11:25 10° ENE
CZ-4B DEB 4.3 19:03:49 10° SSE 19:09:20 87° WSW 19:14:52 10° NNW
CZ-4 R/B 1.2 19:06:31 10° SSE 19:10:20 84° ENE 19:14:15 10° NNW
NOSS 2-1 (C) 4.3 19:09:57 10° NW 19:13:38 49° SW 19:18:36 10° SSE
CZ-4B R/B 3.2 19:08:28 10° SSE 19:13:50 63° ENE 19:19:08 10° N
Cosmos 1766 Rocket 3.5 19:10:07 10° S 19:14:29 90° E 19:18:55 10° N
Meteor 2-17 Rocket 4.4 19:09:36 10° N 19:15:41 78° E 19:21:45 10° SSE
Resurs 01 Rocket 1.6 19:11:30 10° SSE 19:15:53 66° ENE 19:20:17 10° N
Helios 1A 2.8 19:12:18 10° NNE 19:16:23 79° ESE 19:20:27 10° SSW
USA 290 2.6 19:13:25 10° NNW 19:16:42 67° WSW 19:19:58 10° SSE
ADEOS 4.1 19:13:25 10° S 19:18:34 61° WSW 19:23:45 10° NNW
GEOS 3 Rocket 3.8 19:13:51 10° SE 19:19:04 75° SW 19:24:16 10° NW
USA 186 1.7 19:17:58 10° SSE 19:21:10 77° ENE 19:24:25 10° N
CZ-4B R/B 4.1 19:16:46 10° S 19:21:24 54° WSW 19:26:09 10° NNW
Cosmos 1814 Rocket 4.0 19:16:57 10° SSW 19:22:15 87° WNW 19:27:32 10° NNE
PAYLOAD B 4.3 19:16:51 10° SSE 19:22:28 87° WSW 19:28:07 10° NNW
Cosmos 2360 Rocket 4.3 19:17:46 10° WSW 19:22:35 28° NW 19:27:25 10° NNE
KORONAS-FOTON 4.0 19:18:56 10° NNW 19:22:37 68° W 19:26:16 10° S
Cosmos 1743 4.4 19:19:49 10° SW 19:23:06 34° WNW 19:26:24 10° N
MOS 1-B 4.4 19:18:03 10° SSE 19:23:44 62° ENE 19:29:26 10° N
SPOT 5 3.7 19:22:14 19° ESE 19:24:32 28° ENE 19:28:20 10° N
Okean-O 3.6 19:23:04 19° ESE 19:25:17 30° ENE 19:29:08 10° N
USA 267 4.0 19:21:27 10° ENE 19:27:40 49° N 19:33:53 10° WNW
Cosmos 1408 Rocket 3.9 19:24:30 10° SSE 19:28:36 41° E 19:32:45 10° NNE
ISS -3.2 19:26:24 10° SW 19:29:34 39° SSE 19:30:43 28° ESE
SPOT 1/Viking Rocket 4.4 19:24:43 10° S 19:29:44 51° W 19:34:48 10° NNW
NOSS 3-3 (A) 4.3 19:25:22 10° S 19:30:07 33° ESE 19:35:32 10° NE
CZ-4B R/B 3.3 19:26:36 10° S 19:30:26 62° WSW 19:34:29 10° NNW
Kosmos-1783 4.1 19:30:22 10° WSW 19:32:13 27° NW 19:33:12 16° N
SL-08 R/B 4.0 19:28:04 10° N 19:32:56 62° WNW 19:37:46 10° SSW
Cosmos 2237 Rocket 2.2 19:29:27 10° S 19:34:56 57° ESE 19:40:27 10° NE
CSL-04 Rocket 3.6 19:32:16 10° SSE 19:37:37 85° ENE 19:42:58 10° NNW
Aureole 3 Rocket 4.1 19:31:23 10° SSE 19:37:39 42° E 19:42:16 10° NNE
Cosmos 2219 Rocket 3.9 19:34:40 10° WSW 19:39:50 35° NW 19:45:01 10° NNE
Cosmos 1356 Rocket 4.0 19:38:29 10° NNW 19:42:37 57° W 19:46:42 10° S
Meteor 1-14 Rocket 4.5 19:38:10 10° SSW 19:43:41 72° WNW 19:49:15 10° N
Lacrosse 4 Rocket 4.2 19:41:52 10° WNW 19:44:18 15° WSW 19:46:43 10° SW
Meteor 1-4 Rocket 4.4 19:43:27 10° NW 19:45:34 21° W 19:47:41 10° SSW
IKONOS-2 4.5 19:42:07 10° NNE 19:46:13 54° E 19:50:15 10° S
Meteor 1-11 Rocket 3.6 19:41:07 10° S 19:46:41 68° E 19:52:11 10° NNE
MOS 1 Rocket 4.1 19:45:38 26° ESE 19:47:48 39° ENE 19:52:42 10° N
CARTOSAT-1 4.1 19:46:46 10° S 19:50:56 56° W 19:55:09 10° NNW
ATLAS CENTAUR R/B 1.0 19:48:23 10° SSW 19:51:52 54° SE 19:54:53 14° NE
Cosmos 158 Rocket 3.8 19:47:05 10° S 19:51:52 60° ESE 19:56:40 10° NNE
NOSS 3-4 (A) 4.2 19:46:35 10° NW 19:52:54 49° NE 19:57:11 24° E
NOSS 3-4 (C) 4.2 19:46:42 10° NW 19:53:01 48° NE 19:57:18 24° E
Cosmos 1805 Rocket 3.7 19:52:47 28° SSE 19:54:42 49° E 19:58:54 10° NNE
Cosmos 1428 Rocket 4.4 19:51:40 10° N 19:57:48 75° E 20:02:18 19° SSE
Cosmos 1733 3.3 19:55:36 10° SSW 19:59:00 64° WNW 20:02:26 10° N
In-Cosmos 22 4.5 19:54:48 10° NNW 20:00:30 69° W 20:06:00 10° S
USA 276 3.5 19:58:26 10° W 20:00:38 23° SW 20:00:38 23° SW
Cosmos 2369 Rocket 3.0 19:57:56 10° NNW 20:03:13 36° NE 20:05:12 28° E
SL-24 R/B 4.5 20:01:56 34° SE 20:03:47 55° E 20:08:30 10° N
Cosmos 1980 3.7 19:58:46 10° SSW 20:04:28 86° WNW 20:10:12 10° NNE
Meteor 1-21 4.4 20:02:23 10° N 20:08:04 58° ENE 20:10:23 35° SE
Sich 1 2.8 20:07:33 26° S 20:09:52 75° E 20:14:11 10° NNE
Cosmos 1943 Rocket 2.8 20:04:55 10° NW 20:10:16 53° WSW 20:14:05 19° S
Cosmos 1707 Rocket 4.2 20:06:50 10° N 20:10:59 37° ENE 20:11:05 37° ENE
DELTA 2 DEB (DPAF) 4.1 20:07:48 10° NNE 20:11:47 49° E 20:11:47 49° E
NOSS 0 Rocket 4.4 20:06:54 10° SW 20:13:05 64° NW 20:19:20 10° NNE
Cosmos 2298 Rocket 4.0 20:08:50 10° NNW 20:14:11 88° WSW 20:16:27 36° SSE
Terra 2.2 20:13:52 40° E 20:14:29 42° ENE 20:18:57 10° N
Nadezhda 4 Rocket 4.4 20:08:55 10° NNW 20:15:06 63° W 20:21:18 10° S
ACS3 Solar Sail 2.0 20:09:35 14° S 20:15:11 76° WSW 20:21:38 10° NNW
ERS-1 Rocket 3.2 20:14:03 42° ESE 20:15:15 52° ENE 20:20:08 10° N
Cosmos 2195 Rocket 4.4 20:09:09 10° N 20:15:19 88° E 20:19:12 24° S
Cosmos 2150 Rocket 3.9 20:10:41 10° NNW 20:15:52 86° WSW 20:17:56 37° SSE
USA 32 4.0 20:11:15 10° N 20:16:31 89° W 20:19:24 28° S
Cosmos 1570 Rocket 4.1 20:11:52 10° SSW 20:17:09 77° WNW 20:22:26 10° NNE
Cosmos 1975 3.3 20:18:58 42° NE 20:18:58 42° NE 20:21:56 10° NNE
OPS 6432 4.5 20:18:27 10° NW 20:21:15 65° WNW 20:21:15 65° WNW
Cosmos 1805 3.0 20:21:37 62° SSW 20:22:09 82° W 20:25:50 10° N
Cosmos 1315 Rocket 3.7 20:18:48 10° NNW 20:22:38 46° W 20:24:27 26° SSW
Cosmos 2026 Rocket 3.9 20:16:23 10° N 20:22:40 85° E 20:25:51 31° SSE
Cosmos 1092 Rocket 3.9 20:16:47 10° N 20:23:09 84° E 20:26:28 31° SSE
Ariane Rocket 3.5 20:24:21 38° E 20:24:50 39° ENE 20:29:33 10° N
Meteor 2-12 Rocket 4.4 20:20:16 10° N 20:26:28 76° E 20:28:56 39° SSE
Cosmos 836 Rocket 4.4 20:22:22 10° SSW 20:27:39 89° ESE 20:32:59 10° NNE
IRS-1A Rocket 4.2 20:26:27 42° SSE 20:28:29 75° ENE 20:34:10 10° NNW
Okean 3 4.0 20:29:23 10° N 20:32:45 43° NE 20:32:45 43° NE
SL-16 R/B 2.2 20:35:16 53° ESE 20:35:21 53° ESE 20:40:51 10° NE
Okean O Rocket 3.0 20:35:02 19° SSW 20:37:41 36° W 20:41:46 10° NNW
Cosmos 1634 Rocket 3.9 20:36:32 33° S 20:39:30 76° E 20:45:51 10° NNE
Cosmos 1656 Rocket 3.6 20:34:32 10° NNW 20:40:14 79° ENE 20:41:19 59° SE
SL-14 R/B 3.8 20:36:34 10° NNW 20:40:17 51° W 20:40:36 49° WSW
USA 306 3.4 20:37:17 10° W 20:40:35 43° N 20:40:35 43° N
USA 59 Rocket 3.0 20:41:04 10° W 20:42:35 11° WSW 20:44:16 10° SW
ATLAS 2AS CENTAUR R/B 4.4 20:37:06 10° NW 20:42:52 26° N 20:48:29 10° ENE
IRS-1C Rocket 4.0 20:45:02 59° SSE 20:46:05 88° WSW 20:51:24 10° NNW
Cosmos 773 Rocket 3.9 20:45:39 39° SSW 20:47:41 85° ESE 20:53:01 10° NNE
Cosmos 2278 Rocket 4.4 20:45:44 10° NW 20:49:40 20° W 20:53:35 10° SW
Okean 1-7 4.1 20:45:46 10° N 20:48:39 33° NE 20:48:39 33° NE
Cosmos 2263 4.3 20:45:44 10° NNW 20:51:23 56° NE 20:51:55 54° ENE
Resurs 01 Rocket 4.3 20:50:01 10° SW 20:52:45 16° W 20:55:30 10° NW
Cosmos 2228 Rocket 3.1 20:50:49 10° NNW 20:55:20 79° W 20:55:20 79° W
SPOT 3 Rocket 3.4 21:00:55 73° ENE 21:00:55 73° ENE 21:06:00 10° NNW
Okean-O 3.9 21:00:31 30° SW 21:01:35 35° W 21:05:39 10° NNW
SPOT 5 3.8 21:01:23 34° SW 21:02:26 39° W 21:06:38 10° NNW
Cosmos 2142 Rocket 4.3 21:02:36 65° ESE 21:02:47 65° E 21:08:52 10° NNE
ISS -1.1 21:02:54 10° W 21:03:42 16° W 21:03:42 16° W
NOSS 3-3 (C) 4.0 21:00:46 10° SW 21:06:16 73° NW 21:12:52 10° NE
USA 267 3.4 21:08:22 47° E 21:10:12 66° NNE 21:16:41 10° WNW
Cosmos 724 4.3 21:15:31 67° NE 21:15:31 67° NE 21:20:32 10° NE
Cosmos 2180 Rocket 4.4 21:17:01 72° ESE 21:17:08 73° E 21:23:30 10° NNE
Cosmos 2237 Rocket 3.9 21:14:18 10° WSW 21:19:18 32° NW 21:24:20 10° NNE
NOSS 3-3 (A) 4.3 21:15:04 10° WSW 21:20:33 59° NW 21:27:07 10° NE
Cosmos 2279 Rocket 3.9 21:19:59 63° SSW 21:21:04 82° W 21:27:19 10° N
Cosmos 1607 4.0 21:18:09 10° SW 21:24:38 82° NW 21:31:07 10° NE
Cosmos 2297 4.1 21:23:28 10° NW 21:28:58 54° WSW 21:28:59 54° WSW
ATLAS CENTAUR R/B 3.4 21:26:29 10° W 21:29:31 24° NNW 21:29:51 24° NNW
Spot 2 Rocket 4.0 21:31:06 52° W 21:31:06 52° W 21:35:48 10° NNW
NOSS 3-4 (A) 4.0 21:37:23 10° NW 21:44:05 59° SW 21:44:37 58° SW
NOSS 3-4 (C) 4.0 21:37:29 10° NW 21:44:12 59° SW 21:44:43 58° SW
Cosmos 2369 Rocket 2.9 21:41:54 10° NW 21:46:58 48° W 21:46:58 48° W
Terra 3.5 21:52:34 27° W 21:52:34 27° W 21:56:14 10° NW
ACS3 Solar Sail 4.3 21:56:49 10° WSW 22:00:18 15° W 22:03:47 10° NW
Ariane Rocket 4.4 22:04:29 32° W 22:04:29 32° W 22:08:24 10° NNW
Cosmos 2266 Rocket 4.4 22:03:49 10° NNW 22:09:40 55° W 22:09:40 55° W
SL-16 R/B 3.6 22:17:00 23° W 22:19:42 34° NW 22:24:51 10° NNE
ATLAS 2AS CENTAUR R/B 3.6 22:29:10 10° NW 22:35:39 40° NNE 22:36:31 38° NE
Cosmos 1943 4.4 22:41:44 38° N 22:41:44 38° N 22:45:19 10° NNE
USA 267 4.2 22:55:43 38° W 22:55:43 38° W 22:59:46 10° WNW
Cosmos 1697 Rocket 4.2 22:48:32 10° NNW 22:52:28 31° NNE 22:52:28 31° NNE
Cosmos 2344 3.9 23:19:20 10° NW 23:27:14 82° W 23:27:14 82° W
Cosmos 1980 Rocket 3.7 23:48:45 10° NNW 23:52:14 33° N 23:52:14 33° N
